Kake, AK

8:07 PM AKDT on April 26, 2017 (GMT -0800)
Kake

Weather History for PAFE - November, 2012

Change the Weather History Date:

Friday, November 2, 2012

  Actual Average Record
Temperature  
Mean Temperature 40 °F -  
Max Temperature 46 °F 41 °F 48 °F (2000)
Min Temperature 33 °F 33 °F 30 °F (1996)
Degree Days  
Heating Degree Days 26    
Moisture  
Dew Point 37 °F    
Average Humidity 82    
Maximum Humidity 87    
Minimum Humidity 71    
Precipitation  
Precipitation 0.00 in - - ()
Sea Level Pressure  
Sea Level Pressure 29.59 in    
Wind  
Wind Speed 5 mph (ESE)    
Max Wind Speed 15 mph    
Max Gust Speed 23 mph    
Visibility 10 miles    
Events      
Averages and records for this station are not official NWS values.
T = Trace of Precipitation, MM = Missing Value Source: NWS Daily Summary

Daily Weather History Graph

Daily Weather History Graph

Search for Another Location

Airport or City:

Trip Planner

Search our weather history database for the weather conditions in past years. The results will help you decide how hot, cold, wet, or windy it might be!

Date:

Astronomy

Nov. 02, 2012 Rise Set
Actual Time 8:09 AM AKDT 5:07 PM AKDT
Civil Twilight 7:28 AM AKDT 5:48 PM AKDT
Nautical Twilight 6:43 AM AKDT 6:34 PM AKDT
Astronomical Twilight 5:58 AM AKDT 7:18 PM AKDT
Moon 7:35 PM AKDT (11/2) 12:02 PM AKDT (11/2)
Length of Visible Light 10h 20m
Length of Day
8h 58m
Waning Gibbous, 86% of the Moon is Illuminated
Nov 2
Waning Gibbous
Nov 6
Last Quarter
Nov 13
New
Nov 20
First Quarter
Nov 28
Full

Hourly Weather History & Observations

Time (AKDT) Temp. Windchill Dew Point Humidity Pressure Visibility Wind Dir Wind Speed Gust Speed Precip Events Conditions
12:16 AM 35.6 °F - 28.4 °F 75% 29.70 in 10.0 mi Calm Calm - N/A   Overcast
12:36 AM 35.6 °F - 28.4 °F 75% 29.69 in 10.0 mi Calm Calm - N/A   Overcast
12:56 AM 35.6 °F - 28.4 °F 75% 29.70 in 10.0 mi Calm Calm - N/A   Overcast
1:16 AM 35.6 °F 31.7 °F 30.2 °F 81% 29.68 in 10.0 mi East 4.6 mph - N/A   Overcast
1:36 AM 35.6 °F - 30.2 °F 81% 29.67 in 10.0 mi Calm Calm - N/A   Overcast
1:56 AM 33.8 °F 30.8 °F 30.2 °F 87% 29.66 in 10.0 mi North 3.5 mph - N/A   Overcast
2:16 AM 35.6 °F - 30.2 °F 81% 29.65 in 10.0 mi Calm Calm - N/A   Overcast
2:36 AM 35.6 °F - 30.2 °F 81% 29.65 in 10.0 mi Calm Calm - N/A   Overcast
2:56 AM 35.6 °F 32.8 °F 30.2 °F 81% 29.64 in 10.0 mi NE 3.5 mph - N/A   Overcast
3:16 AM 35.6 °F - 30.2 °F 81% 29.63 in 10.0 mi Calm Calm - N/A   Overcast
3:36 AM 35.6 °F - 30.2 °F 81% 29.63 in 10.0 mi Calm Calm - N/A   Overcast
3:56 AM 35.6 °F - 32.0 °F 87% 29.61 in 10.0 mi Calm Calm - N/A   Overcast
4:16 AM 35.6 °F - 32.0 °F 87% 29.60 in 10.0 mi Calm Calm - N/A   Overcast
4:36 AM 37.4 °F - 32.0 °F 81% 29.59 in 10.0 mi Calm Calm - N/A   Overcast
4:56 AM 37.4 °F - 32.0 °F 81% 29.58 in 10.0 mi Calm Calm - N/A   Overcast
5:16 AM 37.4 °F 34.9 °F 32.0 °F 81% 29.57 in 10.0 mi ENE 3.5 mph - N/A   Overcast
5:36 AM 41.0 °F 35.8 °F 33.8 °F 76% 29.56 in 10.0 mi ESE 8.1 mph - N/A   Overcast
5:56 AM 44.6 °F 39.2 °F 35.6 °F 71% 29.55 in 10.0 mi ESE 10.4 mph 19.6 mph N/A   Overcast
6:16 AM 42.8 °F - 35.6 °F 76% 29.55 in 10.0 mi Calm Calm - N/A   Overcast
6:36 AM 39.2 °F - 35.6 °F 87% 29.55 in 9.0 mi Calm Calm - N/A   Overcast
6:56 AM 39.2 °F - 35.6 °F 87% 29.55 in 8.0 mi Calm Calm - N/A   Overcast
7:16 AM 39.2 °F - 35.6 °F 87% 29.53 in 8.0 mi Calm Calm - N/A   Overcast
7:36 AM 42.8 °F 37.5 °F 39.2 °F 87% 29.53 in 8.0 mi ESE 9.2 mph - N/A   Overcast
7:56 AM 44.6 °F 39.2 °F 39.2 °F 81% 29.54 in 9.0 mi ESE 10.4 mph - N/A   Overcast
8:16 AM 44.6 °F 39.7 °F 39.2 °F 81% 29.53 in 9.0 mi ESE 9.2 mph 18.4 mph N/A   Overcast
8:36 AM 44.6 °F 38.4 °F 39.2 °F 81% 29.53 in 10.0 mi East 12.7 mph 18.4 mph N/A   Overcast
8:56 AM 44.6 °F 38.4 °F 39.2 °F 81% 29.53 in 8.0 mi East 12.7 mph 17.3 mph N/A   Overcast
9:16 AM 44.6 °F 39.2 °F 39.2 °F 81% 29.54 in 8.0 mi East 10.4 mph 17.3 mph N/A   Overcast
9:36 AM 44.6 °F 37.8 °F 39.2 °F 81% 29.53 in 9.0 mi East 15.0 mph 20.7 mph N/A   Overcast
9:56 AM 44.6 °F 38.8 °F 39.2 °F 81% 29.53 in 10.0 mi East 11.5 mph 19.6 mph N/A   Overcast
10:16 AM 44.6 °F 39.2 °F 39.2 °F 81% 29.54 in 10.0 mi ESE 10.4 mph 23.0 mph N/A   Overcast
10:36 AM 44.6 °F 40.2 °F 39.2 °F 81% 29.55 in 6.0 mi ESE 8.1 mph 17.3 mph N/A   Overcast
10:56 AM 44.6 °F 40.2 °F 41.0 °F 87% 29.56 in 8.0 mi ESE 8.1 mph - N/A   Overcast
11:16 AM 44.6 °F 38.8 °F 39.2 °F 81% 29.57 in 10.0 mi ESE 11.5 mph 19.6 mph N/A   Overcast
11:36 AM 44.6 °F 38.1 °F 39.2 °F 81% 29.58 in 10.0 mi ESE 13.8 mph 21.9 mph N/A   Overcast
11:56 AM 44.6 °F 38.4 °F 41.0 °F 87% 29.59 in 10.0 mi ESE 12.7 mph 19.6 mph N/A   Overcast
12:16 PM 44.6 °F 38.8 °F 39.2 °F 81% 29.59 in 10.0 mi ESE 11.5 mph 16.1 mph N/A   Overcast
12:36 PM 44.6 °F 39.7 °F 41.0 °F 87% 29.60 in 10.0 mi ESE 9.2 mph - N/A   Overcast
12:56 PM 44.6 °F 39.2 °F 39.2 °F 81% 29.60 in 10.0 mi ESE 10.4 mph 16.1 mph N/A   Overcast
1:16 PM 44.6 °F 40.2 °F 39.2 °F 81% 29.60 in 10.0 mi ESE 8.1 mph - N/A   Overcast
1:36 PM 44.6 °F 39.2 °F 41.0 °F 87% 29.60 in 10.0 mi ESE 10.4 mph - N/A   Overcast
1:56 PM 44.6 °F 40.2 °F 41.0 °F 87% 29.60 in 10.0 mi ESE 8.1 mph - N/A   Overcast
2:16 PM 46.4 °F 41.9 °F 41.0 °F 81% 29.60 in 10.0 mi ESE 9.2 mph - N/A   Overcast
2:36 PM 46.4 °F 42.4 °F 41.0 °F 81% 29.60 in 10.0 mi East 8.1 mph - N/A   Overcast
2:56 PM 46.4 °F 41.9 °F 42.8 °F 87% 29.60 in 10.0 mi ESE 9.2 mph - N/A   Overcast
3:16 PM 46.4 °F 42.9 °F 41.0 °F 81% 29.60 in 10.0 mi East 6.9 mph - N/A   Overcast
3:36 PM 46.4 °F 41.9 °F 41.0 °F 81% 29.60 in 10.0 mi ESE 9.2 mph - N/A   Scattered Clouds
3:56 PM 44.6 °F 40.2 °F 39.2 °F 81% 29.59 in 10.0 mi ESE 8.1 mph - N/A   Clear
4:16 PM 44.6 °F 40.2 °F 39.2 °F 81% 29.59 in 10.0 mi ESE 8.1 mph 16.1 mph N/A   Clear
4:36 PM 44.6 °F 39.7 °F 39.2 °F 81% 29.59 in 10.0 mi East 9.2 mph - N/A   Clear
4:56 PM 44.6 °F 39.7 °F 39.2 °F 81% 29.59 in 10.0 mi East 9.2 mph - N/A   Clear
5:16 PM 44.6 °F 40.2 °F 37.4 °F 76% 29.59 in 10.0 mi East 8.1 mph - N/A   Clear
5:36 PM 42.8 °F 38.0 °F 37.4 °F 81% 29.59 in 10.0 mi East 8.1 mph - N/A   Clear
5:56 PM 42.8 °F 38.0 °F 37.4 °F 81% 29.59 in 10.0 mi East 8.1 mph - N/A   Scattered Clouds
6:16 PM 42.8 °F 37.5 °F 37.4 °F 81% 29.58 in 10.0 mi East 9.2 mph - N/A   Scattered Clouds
6:36 PM 42.8 °F 38.0 °F 37.4 °F 81% 29.59 in 10.0 mi East 8.1 mph - N/A   Scattered Clouds
6:56 PM 42.8 °F 38.6 °F 37.4 °F 81% 29.59 in 10.0 mi East 6.9 mph - N/A   Scattered Clouds
7:16 PM 42.8 °F 38.6 °F 37.4 °F 81% 29.59 in 10.0 mi East 6.9 mph - N/A   Mostly Cloudy
7:36 PM 42.8 °F 38.0 °F 37.4 °F 81% 29.58 in 10.0 mi ESE 8.1 mph - N/A   Partly Cloudy
7:56 PM 42.8 °F 38.0 °F 37.4 °F 81% 29.58 in 10.0 mi ESE 8.1 mph - N/A   Mostly Cloudy
8:16 PM 42.8 °F 37.5 °F 37.4 °F 81% 29.58 in 10.0 mi ESE 9.2 mph - N/A   Mostly Cloudy
8:36 PM 42.8 °F 38.6 °F 37.4 °F 81% 29.59 in 10.0 mi ESE 6.9 mph - N/A   Mostly Cloudy
8:56 PM 41.0 °F 35.2 °F 37.4 °F 87% 29.58 in 10.0 mi East 9.2 mph - N/A   Overcast
9:16 PM 42.8 °F 38.6 °F 37.4 °F 81% 29.58 in 10.0 mi ESE 6.9 mph - N/A   Overcast
9:36 PM 42.8 °F 39.3 °F 37.4 °F 81% 29.58 in 10.0 mi ESE 5.8 mph - N/A   Overcast
9:56 PM 42.8 °F 38.0 °F 37.4 °F 81% 29.58 in 10.0 mi East 8.1 mph - N/A   Overcast
10:16 PM 42.8 °F 38.0 °F 37.4 °F 81% 29.59 in 10.0 mi ESE 8.1 mph - N/A   Mostly Cloudy
10:36 PM 42.8 °F 37.5 °F 37.4 °F 81% 29.59 in 10.0 mi ESE 9.2 mph - N/A   Overcast
11:16 PM 42.8 °F 37.5 °F 37.4 °F 81% 29.59 in 10.0 mi ESE 9.2 mph - N/A   Overcast
11:36 PM 42.8 °F 38.0 °F 37.4 °F 81% 29.60 in 10.0 mi ESE 8.1 mph - N/A   Overcast
11:56 PM 42.8 °F 38.6 °F 37.4 °F 81% 29.60 in 10.0 mi ESE 6.9 mph - N/A   Overcast